When you browse on this site, cookies collect data to enhance your experience and personalize the content and advertising you see.
Visit our Privacy Policy to learn more. By continuing to use the site, you agree to this use of cookies and data.
  • In Schweiz
  • Länderverzeichnis
  • Für 7 Tage
  • Wassertemperatur
  • Wetterkarte
  • Widgets
  • user-avatar
    Anmelden

    Stündliche Wetter Sydney

    Heute, 6 Juni, Samstag

    Zeit Temperatur Niederschläge Wind Luftdruck Luftfeuchtigkeit
    00:00 +10°C° 0 mm 2 m/S 769 mmHg 63%
    01:00 +9°C° 0 mm 3 m/S 768 mmHg 64%
    02:00 +9°C° 0 mm 3 m/S 768 mmHg 64%
    03:00 +8°C° 0 mm 3 m/S 768 mmHg 65%
    04:00 +8°C° 0 mm 3 m/S 768 mmHg 65%
    05:00 +7°C° 0 mm 3 m/S 768 mmHg 66%
    06:00 +7°C° 0 mm 3 m/S 768 mmHg 67%
    07:00 +7°C° 0 mm 3 m/S 768 mmHg 68%
    08:00 +9°C° 0 mm 3 m/S 768 mmHg 62%
    09:00 +11°C° 0 mm 3 m/S 768 mmHg 55%
    10:00 +13°C° 0 mm 3 m/S 768 mmHg 49%
    11:00 +15°C° 0 mm 2 m/S 767 mmHg 48%
    12:00 +18°C° 0 mm 1 m/S 766 mmHg 47%
    13:00 +20°C° 0 mm 1 m/S 766 mmHg 46%
    14:00 +19°C° 0 mm 1 m/S 765 mmHg 49%
    15:00 +19°C° 0 mm 1 m/S 765 mmHg 51%
    16:00 +17°C° 0 mm 2 m/S 765 mmHg 54%
    17:00 +16°C° 0 mm 2 m/S 765 mmHg 63%
    18:00 +14°C° 0 mm 2 m/S 766 mmHg 71%
    19:00 +13°C° 0 mm 1 m/S 766 mmHg 80%
    20:00 +13°C° 0 mm 1 m/S 766 mmHg 81%
    21:00 +12°C° 0 mm 1 m/S 766 mmHg 83%
    22:00 +12°C° 0 mm 1 m/S 766 mmHg 84%
    23:00 +10°C° 0 mm 2 m/S 766 mmHg 84%

    Morgen, 7 Juni, Sonntag

    Zeit Temperatur Niederschläge Wind Luftdruck Luftfeuchtigkeit
    00:00 +10°C° 0 mm 2 m/S 766 mmHg 83%
    01:00 +9°C° 0 mm 2 m/S 766 mmHg 83%
    02:00 +9°C° 0 mm 2 m/S 766 mmHg 81%
    03:00 +9°C° 0 mm 2 m/S 766 mmHg 79%
    04:00 +9°C° 0 mm 2 m/S 766 mmHg 78%
    05:00 +8°C° 0 mm 2 m/S 766 mmHg 78%
    06:00 +8°C° 0 mm 2 m/S 766 mmHg 78%
    07:00 +8°C° 0 mm 2 m/S 766 mmHg 78%
    08:00 +10°C° 0.1 mm 2 m/S 766 mmHg 71%
    09:00 +13°C° 0.1 mm 2 m/S 766 mmHg 64%
    10:00 +15°C° 0.1 mm 2 m/S 766 mmHg 57%
    11:00 +16°C° 0.2 mm 2 m/S 766 mmHg 56%
    12:00 +17°C° 0.2 mm 3 m/S 765 mmHg 54%
    13:00 +18°C° 0.2 mm 3 m/S 765 mmHg 53%
    14:00 +17°C° 0.3 mm 4 m/S 765 mmHg 59%
    15:00 +17°C° 0.3 mm 4 m/S 765 mmHg 66%
    16:00 +15°C° 0.3 mm 5 m/S 765 mmHg 72%
    17:00 +14°C° 0.9 mm 5 m/S 766 mmHg 76%
    18:00 +13°C° 0.9 mm 5 m/S 766 mmHg 80%
    19:00 +13°C° 0.9 mm 5 m/S 767 mmHg 83%
    20:00 +13°C° 2.8 mm 5 m/S 767 mmHg 85%
    21:00 +12°C° 2.8 mm 5 m/S 767 mmHg 87%
    22:00 +12°C° 2.8 mm 5 m/S 768 mmHg 88%
    23:00 +11°C° 5.1 mm 6 m/S 768 mmHg 90%

    übermorgen, 8 Juni, Montag

    Zeit Temperatur Niederschläge Wind Luftdruck Luftfeuchtigkeit
    00:00 +11°C° 5.1 mm 6 m/S 768 mmHg 91%
    01:00 +11°C° 5.1 mm 7 m/S 768 mmHg 92%
    02:00 +11°C° 1.7 mm 7 m/S 768 mmHg 90%
    03:00 +10°C° 1.7 mm 7 m/S 768 mmHg 88%
    04:00 +10°C° 1.7 mm 7 m/S 768 mmHg 87%
    05:00 +10°C° 0 mm 7 m/S 769 mmHg 86%
    06:00 +9°C° 0 mm 6 m/S 769 mmHg 86%
    07:00 +9°C° 0 mm 6 m/S 770 mmHg 85%
    08:00 +10°C° 0.1 mm 6 m/S 770 mmHg 81%
    09:00 +11°C° 0.1 mm 7 m/S 770 mmHg 76%
    10:00 +12°C° 0.1 mm 7 m/S 770 mmHg 72%
    11:00 +14°C° 0.2 mm 7 m/S 770 mmHg 70%
    12:00 +15°C° 0.2 mm 7 m/S 769 mmHg 67%
    13:00 +16°C° 0.2 mm 7 m/S 769 mmHg 65%
    14:00 +16°C° 0.1 mm 6 m/S 769 mmHg 67%
    15:00 +15°C° 0.1 mm 6 m/S 770 mmHg 68%
    16:00 +15°C° 0.1 mm 6 m/S 770 mmHg 70%
    17:00 +14°C° 0.2 mm 5 m/S 770 mmHg 74%
    18:00 +13°C° 0.2 mm 4 m/S 771 mmHg 79%
    19:00 +12°C° 0.2 mm 4 m/S 772 mmHg 83%
    20:00 +12°C° 0.3 mm 3 m/S 772 mmHg 84%
    21:00 +11°C° 0.3 mm 3 m/S 772 mmHg 84%
    22:00 +11°C° 0.3 mm 3 m/S 772 mmHg 85%
    23:00 +12°C° 0.2 mm 2 m/S 772 mmHg 83%

    9 Juni, Dienstag

    Zeit Temperatur Niederschläge Wind Luftdruck Luftfeuchtigkeit
    00:00 +12°C° 0.2 mm 2 m/S 772 mmHg 82%
    01:00 +12°C° 0.2 mm 2 m/S 772 mmHg 81%
    02:00 +12°C° 0.2 mm 2 m/S 772 mmHg 81%
    03:00 +11°C° 0.2 mm 3 m/S 772 mmHg 81%
    04:00 +11°C° 0.2 mm 3 m/S 772 mmHg 81%
    05:00 +11°C° 0.1 mm 3 m/S 772 mmHg 82%
    06:00 +12°C° 0.1 mm 2 m/S 773 mmHg 82%
    07:00 +12°C° 0.1 mm 2 m/S 773 mmHg 82%
    08:00 +13°C° 0 mm 2 m/S 773 mmHg 77%
    09:00 +15°C° 0 mm 2 m/S 773 mmHg 71%
    10:00 +16°C° 0 mm 2 m/S 773 mmHg 66%
    11:00 +17°C° 0 mm 2 m/S 773 mmHg 62%
    12:00 +19°C° 0 mm 1 m/S 772 mmHg 59%
    13:00 +20°C° 0 mm 1 m/S 771 mmHg 56%
    14:00 +19°C° 0 mm 2 m/S 771 mmHg 58%
    15:00 +18°C° 0 mm 2 m/S 771 mmHg 61%
    16:00 +18°C° 0 mm 3 m/S 771 mmHg 64%
    17:00 +17°C° 0 mm 3 m/S 771 mmHg 70%
    18:00 +16°C° 0 mm 3 m/S 771 mmHg 76%
    19:00 +14°C° 0 mm 3 m/S 772 mmHg 82%
    20:00 +13°C° 0 mm 3 m/S 772 mmHg 83%
    21:00 +13°C° 0 mm 3 m/S 772 mmHg 84%
    22:00 +12°C° 0 mm 3 m/S 772 mmHg 85%
    23:00 +12°C° 0 mm 3 m/S 771 mmHg 86%

    10 Juni, Mittwoch

    Zeit Temperatur Niederschläge Wind Luftdruck Luftfeuchtigkeit
    00:00 +12°C° 0 mm 3 m/S 771 mmHg 86%
    01:00 +11°C° 0 mm 3 m/S 771 mmHg 87%
    02:00 +11°C° 0 mm 3 m/S 771 mmHg 87%
    03:00 +11°C° 0 mm 3 m/S 771 mmHg 88%
    04:00 +10°C° 0 mm 3 m/S 771 mmHg 88%
    05:00 +10°C° 0 mm 3 m/S 771 mmHg 89%
    06:00 +10°C° 0 mm 3 m/S 771 mmHg 89%
    07:00 +10°C° 0 mm 2 m/S 771 mmHg 90%
    08:00 +12°C° 0 mm 2 m/S 771 mmHg 82%
    09:00 +14°C° 0 mm 2 m/S 770 mmHg 74%
    10:00 +15°C° 0 mm 2 m/S 770 mmHg 66%
    11:00 +17°C° 0 mm 2 m/S 769 mmHg 59%
    12:00 +20°C° 0 mm 1 m/S 769 mmHg 52%
    13:00 +21°C° 0 mm 1 m/S 768 mmHg 45%
    14:00 +21°C° 0 mm 1 m/S 768 mmHg 47%
    15:00 +20°C° 0 mm 1 m/S 767 mmHg 49%
    16:00 +19°C° 0 mm 2 m/S 767 mmHg 51%
    17:00 +17°C° 0 mm 2 m/S 768 mmHg 59%
    18:00 +16°C° 0 mm 2 m/S 768 mmHg 67%
    19:00 +14°C° 0 mm 2 m/S 768 mmHg 74%
    20:00 +14°C° 0 mm 2 m/S 768 mmHg 75%
    21:00 +14°C° 0 mm 2 m/S 768 mmHg 76%
    22:00 +13°C° 0 mm 1 m/S 768 mmHg 76%
    23:00 +13°C° 0 mm 2 m/S 768 mmHg 77%

    11 Juni, Donnerstag

    Zeit Temperatur Niederschläge Wind Luftdruck Luftfeuchtigkeit
    00:00 +12°C° 0 mm 2 m/S 768 mmHg 77%
    01:00 +12°C° 0 mm 2 m/S 768 mmHg 78%
    02:00 +10°C° 0 mm 2 m/S 767 mmHg 79%
    03:00 +10°C° 0 mm 2 m/S 767 mmHg 80%
    04:00 +10°C° 0 mm 2 m/S 767 mmHg 81%
    05:00 +9°C° 0 mm 2 m/S 767 mmHg 82%
    06:00 +9°C° 0 mm 2 m/S 767 mmHg 83%
    07:00 +9°C° 0 mm 3 m/S 767 mmHg 83%
    08:00 +10°C° 0 mm 2 m/S 767 mmHg 77%
    09:00 +13°C° 0 mm 2 m/S 767 mmHg 70%
    10:00 +15°C° 0 mm 2 m/S 767 mmHg 64%
    11:00 +16°C° 0 mm 2 m/S 766 mmHg 57%
    12:00 +18°C° 0 mm 2 m/S 765 mmHg 51%
    13:00 +20°C° 0 mm 1 m/S 765 mmHg 45%
    14:00 +20°C° 0 mm 1 m/S 765 mmHg 48%
    15:00 +19°C° 0 mm 1 m/S 765 mmHg 50%
    16:00 +19°C° 0 mm 1 m/S 764 mmHg 53%
    17:00 +18°C° 0 mm 1 m/S 765 mmHg 58%
    18:00 +16°C° 0 mm 2 m/S 765 mmHg 63%
    19:00 +15°C° 0 mm 2 m/S 766 mmHg 68%
    20:00 +13°C° 0 mm 3 m/S 766 mmHg 67%
    21:00 +13°C° 0 mm 3 m/S 766 mmHg 67%
    22:00 +12°C° 0 mm 4 m/S 766 mmHg 66%
    23:00 +12°C° 0 mm 4 m/S 766 mmHg 65%
    Mehr zeigen